カタログに戻る

STARLINK-32478

運用中通信VLEO
NORAD 61726·PAYLOAD·🇺🇸 United States

打ち上げ Oct 30, 2024 から Cape Canaveral Space Force Station

Loading…

次のパス (今後24時間)

TLE

最新Source: CelesTrak SupGP

元期: Sep 15, 2026, 02:41 UTC

1 61726C 24196V   26258.11229167  .00028007  00000+0  82719-3 0  2580
2 61726  53.1577 299.2305 0001126  97.1211 128.8974 15.34387003    17

AllMySatでSTARLINK-32478をリアルタイム追跡

Download on the App Store